Погода в Кировске

Россия / Оренбургская область     52°09′05″N   59°37′18″E
темп.,
°C
ветер,
м/с
пор.,
м/с
влажн.,
%
обл.,
%
осадки,
мм/ч
давл.,
гПа
погр.,
м
27 июля, вт
вт2723:00+17св484990 0.0 1019268
02:00+16св3649100 0.0 1019167
05:00+15св345384 0.0 101884
08:00+16ссв115391 0.0 101879
11:00+20зсз12352 0.0 10171398
14:00+22з34292 0.0 10162485
17:00+24зюз352834 0.0 10142663
20:00+20с354545 0.0 1014151
28 июля, ср
ср2823:00+17юз22518 0.0 101412
02:00+15зюз335537 0.0 101338
05:00+16зюз3554100 0.0 1012127
08:00+17зсз466124 0.3 1012320
11:00+21сз455037 1.1 10111489
14:00+20с244872 0.3 1011460
17:00+22ссв563634 0.3 10101253
20:00+20с474099 0.0 1011241
29 июля, чт
чт2923:00+15с611495 0.0 1013327
02:00+12св35600 0.0 101489
05:00+11с11620 0.0 101410
08:00+15зсз22500 0.0 1015239
11:00+20зсз46350 0.0 10141723
14:00+23з462833 0.0 10132294
17:00+24з562456 0.0 10122590
20:00+21юз333599 0.0 101243
30 июля, пт
пт3023:00+18ююз4537100 0.0 101273
02:00+19зюз61235100 0.0 1012538
05:00+15ю41272100 1.1 1011424
08:00+18ююз9175151 0.3 1010923
11:00+23юз10134536 0.8 10081161
14:00+28з91238100 0.1 10062479
17:00+25зюз7124944 0.2 1006681
20:00+24сз61052100 0.0 1007377
31 июля, сб
сб3123:00+20сз376723 0.0 1009150
02:00+17зсз33790 0.0 101044
05:00+16зсз338173 0.0 101041
08:00+20зсз34630 0.0 1012248
11:00+26сз46450 0.0 10111512
14:00+28сз353618 0.0 10112279
17:00+26сз464599 0.0 1011245
20:00+26с114672 0.0 101111